Weather History for Windom, MN

Change the Weather History Date:

Monday, May 7, 2012

  Actual Average Record
Temperature  
Mean Temperature 55 °F -  
Max Temperature 64 °F 68 °F 90 °F (1970)
Min Temperature 46 °F 42 °F 27 °F (1989)
Degree Days  
Heating Degree Days 10    
Growing Degree Days 5 (Base 50)    
Moisture  
Dew Point 41 °F    
Average Humidity 61    
Maximum Humidity 87    
Minimum Humidity 32    
Precipitation  
Precipitation 0.00 in - - ()
Sea Level Pressure  
Sea Level Pressure 30.00 in    
Wind  
Wind Speed 14 mph (WNW)    
Max Wind Speed 28 mph    
Max Gust Speed 34 mph    
Visibility 10 miles    
Events      
Averages and records for this station are not official NWS values.
T = Trace of Precipitation, MM = Missing Value Source: NWS Daily Summary

Daily Weather History Graph

Daily Weather History Graph

Search for Another Location

Airport:

Trip Planner

Search our weather history database for the weather conditions in past years. The results will help you decide how hot, cold, wet, or windy it might be!

Date:

Astronomy

May. 07, 2012 Rise Set
Actual Time 6:03 AM CDT 8:31 PM CDT
Civil Twilight 5:31 AM CDT 9:03 PM CDT
Nautical Twilight 4:50 AM CDT 9:44 PM CDT
Astronomical Twilight 4:05 AM CDT 10:30 PM CDT
Moon 10:47 PM CDT (5/7) 7:06 AM CDT (5/7)
Length of Visible Light 15h 32m
Length of Day
14h 27m
Waning Gibbous, 96% of the Moon is Illuminated
May 7
Waning Gibbous
May 12
Last Quarter
May 20
New
May 28
First Quarter
Jun 4
Full

Hourly Weather History & Observations

Time (CDT) Temp. Windchill Dew Point Humidity Pressure Visibility Wind Dir Wind Speed Gust Speed Precip Events Conditions
12:12 AM 53.6 °F - 48.2 °F 82% 30.03 in 10.0 mi WNW 6.9 mph - N/A   Clear
12:33 AM 51.8 °F - 46.4 °F 82% 30.03 in 10.0 mi WNW 6.9 mph - N/A   Clear
12:53 AM 53.6 °F - 44.6 °F 72% 30.03 in 10.0 mi NW 10.4 mph - N/A   Clear
1:12 AM 53.6 °F - 44.6 °F 72% 30.03 in 10.0 mi NW 9.2 mph - N/A   Clear
1:32 AM 53.6 °F - 42.8 °F 67% 30.04 in 10.0 mi WNW 11.5 mph - N/A   Clear
1:52 AM 53.6 °F - 42.8 °F 67% 30.03 in 10.0 mi WNW 10.4 mph 16.1 mph N/A   Clear
2:12 AM 51.8 °F - 42.8 °F 71% 30.02 in 10.0 mi WNW 12.7 mph - N/A   Clear
2:32 AM 51.8 °F - 42.8 °F 71% 30.02 in 10.0 mi NW 9.2 mph - N/A   Clear
2:53 AM 50.0 °F - 42.8 °F 76% 30.01 in 10.0 mi WNW 8.1 mph - N/A   Clear
3:12 AM 50.0 °F - 41.0 °F 71% 30.01 in 10.0 mi WNW 10.4 mph - N/A   Clear
3:32 AM 51.8 °F - 39.2 °F 62% 30.00 in 10.0 mi WNW 13.8 mph - N/A   Clear
3:52 AM 51.8 °F - 39.2 °F 62% 30.01 in 10.0 mi WNW 18.4 mph 24.2 mph N/A   Clear
4:12 AM 51.8 °F - 39.2 °F 62% 30.01 in 10.0 mi WNW 20.7 mph 25.3 mph N/A   Clear
4:32 AM 50.0 °F - 41.0 °F 71% 30.01 in 10.0 mi WNW 15.0 mph 23.0 mph N/A   Clear
4:53 AM 48.2 °F - 41.0 °F 76% 30.02 in 10.0 mi WNW 19.6 mph 24.2 mph N/A   Clear
5:12 AM 48.2 °F - 41.0 °F 76% 30.03 in 10.0 mi WNW 17.3 mph 21.9 mph N/A   Clear
5:32 AM 48.2 °F - 41.0 °F 76% 30.03 in 10.0 mi WNW 10.4 mph - N/A   Clear
5:53 AM 46.4 °F 41.5 °F 41.0 °F 81% 30.03 in 10.0 mi WNW 10.4 mph - N/A   Clear
6:12 AM 46.4 °F 41.9 °F 41.0 °F 81% 30.02 in 10.0 mi West 9.2 mph - N/A   Clear
6:32 AM 46.4 °F 41.1 °F 39.2 °F 76% 30.02 in 10.0 mi WNW 11.5 mph - N/A   Clear
6:52 AM 46.4 °F 41.1 °F 41.0 °F 81% 30.03 in 10.0 mi West 11.5 mph - N/A   Clear
7:12 AM 48.2 °F - 41.0 °F 76% 30.02 in 10.0 mi West 11.5 mph - N/A   Clear
7:32 AM 48.2 °F - 41.0 °F 76% - 10.0 mi West 12.7 mph - N/A   Clear
7:52 AM 50.0 °F - 41.0 °F 71% 30.03 in 10.0 mi West 11.5 mph - N/A   Clear
8:12 AM 51.8 °F - 41.0 °F 67% 30.03 in 10.0 mi West 17.3 mph - N/A   Clear
8:32 AM 51.8 °F - 42.8 °F 71% 30.03 in 10.0 mi WNW 17.3 mph - N/A   Clear
8:53 AM 51.8 °F - 42.8 °F 71% 30.02 in 10.0 mi WNW 13.8 mph 23.0 mph N/A   Clear
9:12 AM 53.6 °F - 42.8 °F 67% 30.03 in 10.0 mi WNW 16.1 mph 24.2 mph N/A   Clear
9:32 AM 53.6 °F - 42.8 °F 67% 30.03 in 10.0 mi WNW 17.3 mph 24.2 mph N/A   Clear
9:52 AM 55.4 °F - 42.8 °F 63% 30.02 in 10.0 mi WNW 13.8 mph 18.4 mph N/A   Clear
10:12 AM 55.4 °F - 42.8 °F 63% 30.02 in 10.0 mi WNW 15.0 mph - N/A   Clear
10:33 AM 55.4 °F - 42.8 °F 63% 30.02 in 10.0 mi WNW 16.1 mph 20.7 mph N/A   Clear
10:52 AM 55.4 °F - 42.8 °F 63% 30.02 in 10.0 mi WNW 15.0 mph 24.2 mph N/A   Clear
11:12 AM 57.2 °F - 44.6 °F 63% 30.03 in 10.0 mi WNW 16.1 mph 23.0 mph N/A   Clear
11:33 AM 57.2 °F - 44.6 °F 63% 30.02 in 10.0 mi West 13.8 mph 19.6 mph N/A   Clear
11:52 AM 57.2 °F - 44.6 °F 63% 30.02 in 10.0 mi West 16.1 mph - N/A   Scattered Clouds
12:12 PM 59.0 °F - 44.6 °F 59% 30.02 in 10.0 mi WNW 17.3 mph 21.9 mph N/A   Scattered Clouds
12:33 PM 59.0 °F - 44.6 °F 59% 30.02 in 10.0 mi West 16.1 mph 24.2 mph N/A   Scattered Clouds
12:52 PM 59.0 °F - 46.4 °F 63% 30.02 in 10.0 mi West 17.3 mph 27.6 mph N/A   Scattered Clouds
1:12 PM 60.8 °F - 46.4 °F 59% 30.01 in 10.0 mi West 18.4 mph 26.5 mph N/A   Scattered Clouds
1:33 PM 60.8 °F - 46.4 °F 59% 30.01 in 10.0 mi West 20.7 mph 27.6 mph N/A   Scattered Clouds
1:52 PM 62.6 °F - 46.4 °F 55% 30.01 in 10.0 mi West 24.2 mph 28.8 mph N/A   Scattered Clouds
2:12 PM 62.6 °F - 44.6 °F 52% 30.00 in 10.0 mi West 21.9 mph 26.5 mph N/A   Scattered Clouds
2:32 PM 62.6 °F - 42.8 °F 48% 30.00 in 10.0 mi WNW 20.7 mph 29.9 mph N/A   Scattered Clouds
2:52 PM 62.6 °F - 41.0 °F 45% 29.99 in 10.0 mi West 24.2 mph 32.2 mph N/A   Scattered Clouds
3:13 PM 62.6 °F - 41.0 °F 45% 29.99 in 10.0 mi West 20.7 mph 24.2 mph N/A   Clear
3:33 PM 62.6 °F - 39.2 °F 42% 29.99 in 10.0 mi WNW 23.0 mph 29.9 mph N/A   Clear
3:52 PM 64.4 °F - 39.2 °F 40% 29.98 in 10.0 mi West 21.9 mph 32.2 mph N/A   Clear
4:13 PM 64.4 °F - 37.4 °F 37% 29.98 in 10.0 mi West 20.7 mph 32.2 mph N/A   Scattered Clouds
4:32 PM 64.4 °F - 37.4 °F 37% 29.97 in 10.0 mi West 21.9 mph 34.5 mph N/A   Clear
4:52 PM 64.4 °F - 33.8 °F 32% 29.96 in 10.0 mi West 27.6 mph 33.4 mph N/A   Clear
5:13 PM 64.4 °F - 33.8 °F 32% 29.96 in 10.0 mi WNW 24.2 mph 31.1 mph N/A   Clear
5:32 PM 64.4 °F - 33.8 °F 32% 29.96 in 10.0 mi West 26.5 mph 32.2 mph N/A   Clear
5:52 PM 62.6 °F - 32.0 °F 32% 29.96 in 10.0 mi West 23.0 mph 27.6 mph N/A   Clear
6:13 PM 62.6 °F - 33.8 °F 34% 29.96 in 10.0 mi West 19.6 mph 26.5 mph N/A   Clear
6:33 PM 62.6 °F - 33.8 °F 34% 29.95 in 10.0 mi West 24.2 mph - N/A   Clear
6:52 PM 62.6 °F - 37.4 °F 39% 29.95 in 10.0 mi WNW 25.3 mph 29.9 mph N/A   Scattered Clouds
7:13 PM 60.8 °F - 37.4 °F 42% 29.95 in 10.0 mi West 27.6 mph 32.2 mph N/A   Scattered Clouds
7:32 PM 60.8 °F - 39.2 °F 45% 29.96 in 10.0 mi WNW 23.0 mph 33.4 mph N/A   Clear
7:52 PM 59.0 °F - 39.2 °F 48% 29.96 in 10.0 mi WNW 21.9 mph 27.6 mph N/A   Clear
8:12 PM 57.2 °F - 37.4 °F 48% 29.96 in 10.0 mi WNW 18.4 mph 27.6 mph N/A   Clear
8:32 PM 55.4 °F - 39.2 °F 54% 29.96 in 10.0 mi WNW 15.0 mph - N/A   Clear
8:53 PM 53.6 °F - 39.2 °F 58% 29.96 in 10.0 mi WNW 11.5 mph - N/A   Clear
9:13 PM 53.6 °F - 39.2 °F 58% 29.96 in 10.0 mi WNW 11.5 mph - N/A   Clear
9:32 PM 53.6 °F - 39.2 °F 58% 29.97 in 10.0 mi WNW 11.5 mph - N/A   Clear
9:53 PM 51.8 °F - 41.0 °F 67% 29.97 in 10.0 mi WNW 8.1 mph - N/A   Clear
10:12 PM 50.0 °F - 42.8 °F 76% 29.97 in 10.0 mi WNW 4.6 mph - N/A   Clear
10:32 PM 50.0 °F - 41.0 °F 71% 29.97 in - West 5.8 mph - N/A   Clear
10:52 PM 48.2 °F - 41.0 °F 76% 29.96 in 10.0 mi West 5.8 mph - N/A   Clear
11:13 PM 48.2 °F - 41.0 °F 76% 29.96 in 10.0 mi WSW 5.8 mph - N/A   Clear
11:32 PM 48.2 °F - 42.8 °F 82% 29.96 in 10.0 mi WSW 4.6 mph - N/A   Clear
11:53 PM 46.4 °F 42.9 °F 42.8 °F 87% 29.96 in 10.0 mi WSW 6.9 mph - N/A   Clear